Domov               UVHVVR             MKGP            O straneh              
ZDRAVSTVENO VARSTVO RASTLIN
  MREŽA AGROMET. POSTAJ
 ► PROGNOSTIČNA OBVESTILA
AGROMETEOROLOŠKI PODATKI -
ARSO
OBVLADOVANJE TVEGANJ ZARADI
NEUGODNIH VREMENSKIH RAZMER
  ► NARAVNE NESREČE
  ► SUŠA/MOČA
  ► NAMAKANJE
  ► ŽLED (gozdarstvo)
KARTOGRAFSKI PRIKAZI
SPLETNE POVEZAVE
PROJEKTI IN PUBLIKACIJE

AGROMETEOROLOŠKA MREŽA: VREMENSKE POSTAJE IN FENOLOŠKA OPAZOVANJA

Pregled podatkov za lokacijo Vnajnarje, meteorološka postaja 27470

Pregled senzorjev na lokaciji

ID Ime Zadnja
vrednost
Datum
zadnje
spremembe
Tip
senzorja
3759 Omočenost lista (U) 0 U 19.7.2018 05:30 A730WET
3756 Padavine (mm) 0 mm 19.7.2018 05:30 Generic 0.2 mm
3757 Relativna vlaga 2 m (% RH) 65,93 % RH 19.7.2018 05:30 Generic 0 - 100 %
3758 Temperatura 2 m (°C) 18,07 °C 19.7.2018 05:30 Generic -40 - +60 °C

Pregled podatkov zadnjih 24 ur

Zap.
št.
Datum in čas Vnajnarje
Omočenost
lista
Padavine Relativna
vlaga
2
m
Temperatura
2
m
1 19.7.2018 05:30
2 19.7.2018 05:00
3 19.7.2018 04:30 0 0 65,9 18,1
4 19.7.2018 04:00 0 0 57,5 19
5 19.7.2018 03:30 0 0 58,2 18,6
6 19.7.2018 03:00 0 0 60 18,8
7 19.7.2018 02:30 0 0 63,7 19,3
8 19.7.2018 02:00 0 0 78,2 18,9
9 19.7.2018 01:30 0 0 62,2 20,6
10 19.7.2018 01:00 0 0 66,6 21,1
11 19.7.2018 00:30 0 0 65,1 21
12 19.7.2018 00:00 0 0 68,9 20,9
13 18.7.2018 23:30 0 0 68,7 21
14 18.7.2018 23:00 0 0 66,7 21,2
15 18.7.2018 22:30 0 0 65,6 21,4
16 18.7.2018 22:00 0 0 63,7 21,6
17 18.7.2018 21:30 0 0 62 21,7
18 18.7.2018 21:00 0 0 61 22
19 18.7.2018 20:30 0 0 60 22,3
20 18.7.2018 20:00 0 0 59,4 22,4
21 18.7.2018 19:30 0 0 58,2 22,7
22 18.7.2018 19:00 0 0 57,2 23,3
23 18.7.2018 18:30 0 0 55,7 24
24 18.7.2018 18:00 0 0 53,2 24,4
25 18.7.2018 17:30 0 0 52,2 24,3
26 18.7.2018 17:00 0 0 51,1 24,2
27 18.7.2018 16:30 0 0 49,8 25,5
28 18.7.2018 16:00 0 0 45 25,4
29 18.7.2018 15:30 0 0 47,8 26,2
30 18.7.2018 15:00 0 0 35,9 26,3
31 18.7.2018 14:30 0 0 33,2 26
32 18.7.2018 14:00 0 0 35,8 25,7
33 18.7.2018 13:30 0 0 38,3 26
34 18.7.2018 13:00 0 0 39,9 25,6
35 18.7.2018 12:30 0 0 52,3 24,9
36 18.7.2018 12:00 0 0 52,3 24,6
37 18.7.2018 11:30 0 0 58,4 23,8
38 18.7.2018 11:00 0 0 55,9 23,3
39 18.7.2018 10:30 0 0 54,3 22,4
40 18.7.2018 10:00 0 0 58,2 21,6
41 18.7.2018 09:30 0 0 59,4 21
42 18.7.2018 09:00 0 0 61,8 20,5
43 18.7.2018 08:30 0 0 58,5 20,1
44 18.7.2018 08:00 0 0 59,5 19,9
45 18.7.2018 07:30 0 0 62,4 19,1
46 18.7.2018 07:00 0 0 69,4 18,4
47 18.7.2018 06:30 0 0 70,8 17,9
48 18.7.2018 06:00 0 0 74,5 17,4
© 2011 Ministrstvo za kmetijstvo, gozdarstvo in prehrano. Vse pravice pridržane.